Tracking 31027 objects as of 19-Jul-2025
HD Live streaming from Space Station
objects crossing your sky now

STARLINK-4550

Track STARLINK-4550 now!
10-day predictions
STARLINK-4550 is classified as:


NORAD ID: 53570
Int'l Code: 2022-101AV
Perigee: 545.9 km
Apogee: 547.8 km
Inclination: 53.2 °
Period: 95.4 minutes
Semi major axis: 6917 km
RCS: Unknown
Launch date: August 19, 2022
Source: United States (US)
Launch site: AIR FORCE EASTERN TEST RANGE (AFETR)
Your satellite tracking list
CREW DRAGON DEMO-2 DEB
Track 1 satellite(s)




NASA's NSSDC Master Catalog

Two Line Element Set (TLE):
1 53570U 22101AV  25199.51232318  .00001052  00000-0  84210-4 0  9994
2 53570  53.2179  25.2902 0001369  83.4682 276.6466 15.08837572161099
Source of the keplerian elements: AFSPC